TimeMDT,TemperatureF,Dew PointF,Humidity,Sea Level PressureIn,VisibilityMPH,Wind Direction,Wind SpeedMPH,Gust SpeedMPH,PrecipitationIn,Events,Conditions,WindDirDegrees,DateUTC
12:53 AM,39.9,35.1,83,30.01,10.0,Calm,Calm,-,N/A,,Clear,0,2013-09-21 06:53:00
1:53 AM,39.9,34.0,79,29.99,10.0,Calm,Calm,-,N/A,,Clear,0,2013-09-21 07:53:00
2:53 AM,37.9,34.0,86,29.98,10.0,Calm,Calm,-,N/A,,Clear,0,2013-09-21 08:53:00
3:53 AM,39.0,34.0,82,29.97,10.0,Calm,Calm,-,N/A,,Clear,0,2013-09-21 09:53:00
4:53 AM,36.0,33.1,89,29.98,10.0,WSW,4.6,-,N/A,,Clear,240,2013-09-21 10:53:00
5:53 AM,37.0,33.1,86,29.98,10.0,Calm,Calm,-,N/A,,Clear,0,2013-09-21 11:53:00
6:53 AM,37.0,33.1,86,30.01,10.0,Calm,Calm,-,N/A,,Scattered Clouds,0,2013-09-21 12:53:00
7:53 AM,41.0,36.0,82,30.02,10.0,SW,3.5,-,N/A,,Partly Cloudy,230,2013-09-21 13:53:00
8:53 AM,54.0,39.9,59,29.99,10.0,Calm,Calm,-,N/A,,Partly Cloudy,0,2013-09-21 14:53:00
9:53 AM,64.9,37.9,37,29.95,10.0,ENE,9.2,-,N/A,,Scattered Clouds,70,2013-09-21 15:53:00
10:53 AM,71.1,37.9,30,29.93,10.0,NNE,8.1,-,N/A,,Clear,30,2013-09-21 16:53:00
11:53 AM,78.1,36.0,22,29.88,10.0,WSW,18.4,29.9,N/A,,Clear,240,2013-09-21 17:53:00
12:53 PM,78.1,28.0,16,29.87,10.0,SW,26.5,32.2,N/A,,Clear,220,2013-09-21 18:53:00
1:53 PM,78.1,28.9,17,29.86,10.0,SW,21.9,32.2,N/A,,Clear,230,2013-09-21 19:53:00
2:53 PM,78.1,30.9,18,29.84,10.0,SSW,20.7,29.9,N/A,,Clear,210,2013-09-21 20:53:00
3:53 PM,78.1,28.9,17,29.81,10.0,WSW,21.9,32.2,N/A,,Clear,240,2013-09-21 21:53:00
4:53 PM,77.0,30.9,19,29.81,10.0,SW,19.6,28.8,N/A,,Clear,220,2013-09-21 22:53:00
5:53 PM,75.0,33.1,22,29.80,10.0,SW,17.3,24.2,N/A,,Scattered Clouds,220,2013-09-21 23:53:00
6:53 PM,69.1,34.0,27,29.81,10.0,SW,8.1,-,N/A,,Clear,220,2013-09-22 00:53:00
7:53 PM,57.9,37.0,46,29.81,10.0,Calm,Calm,-,N/A,,Clear,0,2013-09-22 01:53:00
8:53 PM,57.0,41.0,55,29.77,10.0,Calm,Calm,-,N/A,,Clear,0,2013-09-22 02:53:00
9:53 PM,60.1,37.0,42,29.72,10.0,ENE,4.6,-,N/A,,Clear,70,2013-09-22 03:53:00
10:53 PM,50.0,41.0,71,29.73,10.0,West,4.6,-,N/A,,Clear,270,2013-09-22 04:53:00
11:53 PM,51.1,39.0,63,29.71,10.0,Calm,Calm,-,N/A,,Clear,0,2013-09-22 05:53:00